| time (UTC) | temp F | wind direction | speed MPH | gust MPH | rain 1hr in | rain 24hr in | rain mn in | humidity % | barometer mb |
| 20260505114234 | 55 | 153 | 5.0 | 6.0 | 0.00 | 0.00 | 0.00 | 60 | 1008.0 |
| 20260505113731 | 55 | 141 | 4.0 | 6.0 | 0.00 | 0.00 | 0.00 | 60 | 1008.0 |
| 20260505113235 | 55 | 142 | 5.0 | 6.0 | 0.00 | 0.00 | 0.00 | 60 | 1008.0 |
| 20260505112733 | 55 | 105 | 2.0 | 2.0 | 0.00 | 0.00 | 0.00 | 60 | 1007.0 |
| 20260505112233 | 55 | 157 | 5.0 | 5.0 | 0.00 | 0.00 | 0.00 | 60 | 1007.0 |
| 20260505111734 | 55 | 170 | 4.0 | 6.0 | 0.00 | 0.00 | 0.00 | 59 | 1007.0 |
| 20260505111232 | 55 | 151 | 4.0 | 6.0 | 0.00 | 0.00 | 0.00 | 59 | 1007.0 |
| 20260505110734 | 55 | 165 | 5.0 | 6.0 | 0.00 | 0.00 | 0.00 | 60 | 1007.0 |
| 20260505110234 | 54 | 171 | 6.0 | 7.0 | 0.00 | 0.00 | 0.00 | 60 | 1007.0 |
| 20260505101733 | 54 | 188 | 5.0 | 7.0 | 0.00 | 0.00 | 0.00 | 61 | 1007.0 |
| 20260505101231 | 54 | 182 | 7.0 | 8.0 | 0.00 | 0.00 | 0.00 | 61 | 1007.0 |
| 20260505100733 | 55 | 162 | 7.0 | 9.0 | 0.00 | 0.00 | 0.00 | 61 | 1006.0 |
| 20260505100232 | 55 | 168 | 6.0 | 7.0 | 0.00 | 0.00 | 0.00 | 60 | 1006.0 |
| 20260505095732 | 55 | 179 | 5.0 | 6.0 | 0.00 | 0.00 | 0.00 | 59 | 1006.0 |
| 20260505095231 | 55 | 176 | 6.0 | 7.0 | 0.00 | 0.00 | 0.00 | 59 | 1006.0 |
| 20260505094732 | 55 | 176 | 5.0 | 6.0 | 0.00 | 0.00 | 0.00 | 60 | 1006.0 |
| 20260505094231 | 55 | 185 | 4.0 | 6.0 | 0.00 | 0.00 | 0.00 | 59 | 1006.0 |
| 20260505093732 | 55 | 188 | 4.0 | 6.0 | 0.00 | 0.00 | 0.00 | 58 | 1006.0 |
| 20260505093234 | 56 | 192 | 4.0 | 6.0 | 0.00 | 0.00 | 0.00 | 59 | 1006.0 |
| 20260505092733 | 56 | 174 | 5.0 | 5.0 | 0.00 | 0.00 | 0.00 | 59 | 1006.0 |
| 20260505092232 | 57 | 200 | 3.0 | 3.0 | 0.00 | 0.00 | 0.00 | 57 | 1006.0 |
| 20260505091731 | 58 | 170 | 3.0 | 3.0 | 0.00 | 0.00 | 0.00 | 55 | 1006.0 |
| 20260505091231 | 58 | 202 | 4.0 | 4.0 | 0.00 | 0.00 | 0.00 | 54 | 1006.0 |
| 20260505090731 | 58 | 179 | 5.0 | 6.0 | 0.00 | 0.00 | 0.00 | 54 | 1006.0 |
| 20260505090231 | 58 | 169 | 5.0 | 6.0 | 0.00 | 0.00 | 0.00 | 54 | 1006.0 |
| 20260505085731 | 57 | 154 | 7.0 | 9.0 | 0.00 | 0.00 | 0.00 | 55 | 1006.0 |
| 20260505085232 | 57 | 183 | 4.0 | 4.0 | 0.00 | 0.00 | 0.00 | 57 | 1006.0 |
| 20260505084732 | 57 | 157 | 3.0 | 3.0 | 0.00 | 0.00 | 0.00 | 56 | 1006.0 |
| 20260505084231 | 57 | 182 | 3.0 | 3.0 | 0.00 | 0.00 | 0.00 | 56 | 1005.0 |
| 20260505083731 | 57 | 256 | 1.0 | 1.0 | 0.00 | 0.00 | 0.00 | 56 | 1005.0 |
| 20260505083231 | 57 | 224 | 3.0 | 4.0 | 0.00 | 0.00 | 0.00 | 56 | 1005.0 |
| 20260505082731 | 58 | 215 | 2.0 | 3.0 | 0.00 | 0.00 | 0.00 | 55 | 1005.0 |
| 20260505082232 | 59 | 209 | 5.0 | 5.0 | 0.00 | 0.00 | 0.00 | 54 | 1005.0 |
| 20260505081735 | 60 | 247 | 5.0 | 6.0 | 0.00 | 0.00 | 0.00 | 52 | 1005.0 |
| 20260505081232 | 60 | 249 | 5.0 | 6.0 | 0.00 | 0.00 | 0.00 | 50 | 1005.0 |
| 20260505080733 | 60 | 263 | 7.0 | 9.0 | 0.00 | 0.00 | 0.00 | 51 | 1005.0 |
| 20260505080233 | 60 | 199 | 1.0 | 3.0 | 0.00 | 0.00 | 0.00 | 51 | 1005.0 |
| 20260505075731 | 60 | 233 | 5.0 | 7.0 | 0.00 | 0.00 | 0.00 | 50 | 1005.0 |
| 20260505075236 | 60 | 219 | 3.0 | 4.0 | 0.00 | 0.00 | 0.00 | 50 | 1005.0 |
| 20260505074733 | 60 | 246 | 5.0 | 6.0 | 0.00 | 0.00 | 0.00 | 49 | 1005.0 |
| 20260505074232 | 60 | 214 | 5.0 | 6.0 | 0.00 | 0.00 | 0.00 | 50 | 1005.0 |
| 20260505073731 | 61 | 220 | 4.0 | 5.0 | 0.00 | 0.00 | 0.00 | 49 | 1005.0 |
| 20260505073232 | 62 | 237 | 6.0 | 7.0 | 0.00 | 0.00 | 0.00 | 47 | 1005.0 |
| 20260505072734 | 62 | 249 | 7.0 | 8.0 | 0.00 | 0.00 | 0.00 | 48 | 1005.0 |
| 20260505072231 | 61 | 239 | 6.0 | 6.0 | 0.00 | 0.00 | 0.00 | 46 | 1005.0 |
| 20260505071736 | 61 | 249 | 3.0 | 3.0 | 0.00 | 0.00 | 0.00 | 48 | 1005.0 |
| 20260505071232 | 61 | 269 | 1.0 | 3.0 | 0.00 | 0.00 | 0.00 | 48 | 1005.0 |
| 20260505070735 | 62 | 243 | 6.0 | 7.0 | 0.00 | 0.00 | 0.00 | 46 | 1005.0 |
| 20260505070231 | 62 | 236 | 6.0 | 8.0 | 0.00 | 0.00 | 0.00 | 45 | 1005.0 |
| 20260505065732 | 62 | 185 | 3.0 | 3.0 | 0.00 | 0.00 | 0.00 | 47 | 1005.0 |
| 20260505065232 | 62 | 228 | 2.0 | 4.0 | 0.00 | 0.00 | 0.00 | 44 | 1005.0 |
| 20260505064731 | 60 | 261 | 4.0 | 5.0 | 0.00 | 0.00 | 0.00 | 49 | 1005.0 |
| 20260505064232 | 61 | 196 | 2.0 | 4.0 | 0.00 | 0.00 | 0.00 | 47 | 1004.0 |
| 20260505063731 | 62 | 226 | 1.0 | 3.0 | 0.00 | 0.00 | 0.00 | 47 | 1004.0 |
| 20260505063232 | 62 | 228 | 4.0 | 4.0 | 0.00 | 0.00 | 0.00 | 46 | 1004.0 |
| 20260505062732 | 62 | 26 | 4.0 | 5.0 | 0.00 | 0.00 | 0.00 | 46 | 1005.0 |
| 20260505062232 | 63 | 203 | 2.0 | 3.0 | 0.00 | 0.00 | 0.00 | 45 | 1004.0 |
| 20260505061732 | 64 | 131 | 1.0 | 2.0 | 0.00 | 0.00 | 0.00 | 45 | 1005.0 |
| 20260505061231 | 65 | 236 | 6.0 | 7.0 | 0.00 | 0.00 | 0.00 | 42 | 1004.0 |
| 20260505060731 | 65 | 268 | 4.0 | 6.0 | 0.00 | 0.00 | 0.00 | 40 | 1004.0 |
| 20260505060232 | 65 | 267 | 8.0 | 9.0 | 0.00 | 0.00 | 0.00 | 39 | 1004.0 |
| 20260505055733 | 64 | 280 | 4.0 | 4.0 | 0.00 | 0.00 | 0.00 | 41 | 1004.0 |
| 20260505055234 | 64 | 241 | 2.0 | 3.0 | 0.00 | 0.00 | 0.00 | 42 | 1004.0 |
| 20260505054732 | 65 | 235 | 5.0 | 6.0 | 0.00 | 0.00 | 0.00 | 42 | 1004.0 |
| 20260505054231 | 66 | 242 | 2.0 | 3.0 | 0.00 | 0.00 | 0.00 | 41 | 1004.0 |
| 20260505053732 | 66 | 258 | 7.0 | 9.0 | 0.00 | 0.00 | 0.00 | 38 | 1004.0 |
| 20260505053232 | 65 | 57 | 0.0 | 1.0 | 0.00 | 0.00 | 0.00 | 39 | 1004.0 |
| 20260505052731 | 65 | 35 | 2.0 | 3.0 | 0.00 | 0.00 | 0.00 | 40 | 1004.0 |
| 20260505052233 | 65 | 279 | 4.0 | 6.0 | 0.00 | 0.00 | 0.00 | 39 | 1004.0 |
| 20260505051732 | 65 | 256 | 2.0 | 2.0 | 0.00 | 0.00 | 0.00 | 40 | 1004.0 |
| 20260505051232 | 65 | 246 | 4.0 | 4.0 | 0.00 | 0.00 | 0.00 | 39 | 1004.0 |
| 20260505050732 | 65 | 238 | 3.0 | 4.0 | 0.00 | 0.00 | 0.00 | 39 | 1004.0 |
| 20260505050231 | 66 | 217 | 3.0 | 4.0 | 0.00 | 0.00 | 0.00 | 40 | 1004.0 |
| 20260505041732 | 70 | 300 | 3.0 | 4.0 | 0.00 | 0.00 | 0.00 | 34 | 1004.0 |
| 20260505041231 | 70 | 309 | 4.0 | 5.0 | 0.00 | 0.00 | 0.00 | 33 | 1004.0 |
| 20260505040731 | 70 | 314 | 5.0 | 6.0 | 0.00 | 0.00 | 0.00 | 33 | 1004.0 |
| 20260505040231 | 71 | 312 | 7.0 | 8.0 | 0.00 | 0.00 | 0.00 | 33 | 1004.0 |
| 20260505035731 | 71 | 314 | 7.0 | 25.0 | 0.00 | 0.00 | 0.00 | 33 | 1004.0 |
| 20260505035233 | 71 | 315 | 7.0 | 25.0 | 0.00 | 0.00 | 0.00 | 33 | 1004.0 |
| 20260505034732 | 72 | 314 | 11.0 | 28.0 | 0.00 | 0.00 | 0.00 | 32 | 1004.0 |
| 20260505034232 | 72 | 315 | 10.0 | 28.0 | 0.00 | 0.00 | 0.00 | 32 | 1004.0 |
| 20260505033732 | 72 | 315 | 12.0 | 32.0 | 0.00 | 0.00 | 0.00 | 32 | 1004.0 |
| 20260505033232 | 72 | 313 | 7.0 | 9.0 | 0.00 | 0.00 | 0.00 | 32 | 1004.0 |
| 20260505032731 | 73 | 314 | 9.0 | 27.0 | 0.00 | 0.00 | 0.00 | 32 | 1004.0 |
| 20260505032232 | 73 | 313 | 10.0 | 30.0 | 0.00 | 0.00 | 0.00 | 32 | 1004.0 |
| 20260505031232 | 74 | 313 | 11.0 | 28.0 | 0.00 | 0.00 | 0.00 | 31 | 1004.0 |
| 20260505030731 | 74 | 315 | 13.0 | 29.0 | 0.00 | 0.00 | 0.00 | 31 | 1003.0 |
| 20260505030232 | 74 | 313 | 9.0 | 11.0 | 0.00 | 0.00 | 0.00 | 30 | 1004.0 |
| 20260505025231 | 75 | 315 | 11.0 | 30.0 | 0.00 | 0.00 | 0.00 | 30 | 1004.0 |
| 20260505022232 | 76 | 316 | 10.0 | 19.0 | 0.00 | 0.00 | 0.00 | 29 | 1003.0 |
| 20260505021731 | 77 | 316 | 13.0 | 23.0 | 0.00 | 0.00 | 0.00 | 29 | 1003.0 |
| 20260505021231 | 77 | 320 | 10.0 | 19.0 | 0.00 | 0.00 | 0.00 | 29 | 1003.0 |
| 20260505020731 | 77 | 315 | 10.0 | 12.0 | 0.00 | 0.00 | 0.00 | 30 | 1003.0 |
| 20260505020231 | 77 | 314 | 9.0 | 11.0 | 0.00 | 0.00 | 0.00 | 29 | 1003.0 |
| 20260505015732 | 77 | 317 | 11.0 | 14.0 | 0.00 | 0.00 | 0.00 | 29 | 1003.0 |
| 20260505015231 | 78 | 315 | 12.0 | 15.0 | 0.00 | 0.00 | 0.00 | 28 | 1003.0 |
| 20260505014731 | 78 | 320 | 12.0 | 15.0 | 0.00 | 0.00 | 0.00 | 28 | 1003.0 |
| 20260505014231 | 78 | 314 | 11.0 | 13.0 | 0.00 | 0.00 | 0.00 | 28 | 1003.0 |
| 20260505013733 | 78 | 314 | 12.0 | 13.0 | 0.00 | 0.00 | 0.00 | 28 | 1003.0 |
| 20260505013231 | 78 | 314 | 10.0 | 13.0 | 0.00 | 0.00 | 0.00 | 27 | 1003.0 |
| 20260505012731 | 78 | 305 | 8.0 | 11.0 | 0.00 | 0.00 | 0.00 | 27 | 1003.0 |
| 20260505012232 | 79 | 308 | 12.0 | 19.0 | 0.00 | 0.00 | 0.00 | 26 | 1003.0 |
| 20260505011731 | 79 | 306 | 11.0 | 15.0 | 0.00 | 0.00 | 0.00 | 26 | 1003.0 |
| 20260505011231 | 79 | 316 | 10.0 | 13.0 | 0.00 | 0.00 | 0.00 | 25 | 1003.0 |
| 20260505010731 | 79 | 312 | 11.0 | 13.0 | 0.00 | 0.00 | 0.00 | 24 | 1003.0 |
| 20260505010232 | 79 | 303 | 9.0 | 11.0 | 0.00 | 0.00 | 0.00 | 24 | 1003.0 |
| 20260505005731 | 79 | 309 | 11.0 | 19.0 | 0.00 | 0.00 | 0.00 | 24 | 1004.0 |
| 20260505005231 | 79 | 312 | 11.0 | 14.0 | 0.00 | 0.00 | 0.00 | 23 | 1004.0 |
| 20260505004733 | 79 | 315 | 9.0 | 12.0 | 0.00 | 0.00 | 0.00 | 24 | 1004.0 |
| 20260505004231 | 79 | 313 | 15.0 | 22.0 | 0.00 | 0.00 | 0.00 | 23 | 1004.0 |
| 20260505003732 | 79 | 314 | 11.0 | 17.0 | 0.00 | 0.00 | 0.00 | 23 | 1004.0 |
| 20260505003232 | 79 | 313 | 12.0 | 17.0 | 0.00 | 0.00 | 0.00 | 24 | 1004.0 |
| 20260505002732 | 79 | 317 | 14.0 | 16.0 | 0.00 | 0.00 | 0.00 | 24 | 1004.0 |
| 20260505002232 | 79 | 306 | 10.0 | 14.0 | 0.00 | 0.00 | 0.00 | 24 | 1004.0 |
| 20260505001732 | 79 | 313 | 11.0 | 12.0 | 0.00 | 0.00 | 0.00 | 24 | 1004.0 |
| 20260505001231 | 79 | 313 | 11.0 | 17.0 | 0.00 | 0.00 | 0.00 | 25 | 1004.0 |
| 20260505000732 | 78 | 299 | 9.0 | 10.0 | 0.00 | 0.00 | 0.00 | 24 | 1004.0 |
| 20260505000233 | 79 | 311 | 11.0 | 21.0 | 0.00 | 0.00 | 0.00 | 25 | 1004.0 |
| 20260504235732 | 78 | 317 | 13.0 | 19.0 | 0.00 | 0.00 | 0.00 | 26 | 1004.0 |
| 20260504235231 | 78 | 306 | 10.0 | 12.0 | 0.00 | 0.00 | 0.00 | 26 | 1004.0 |
| 20260504234733 | 78 | 294 | 12.0 | 14.0 | 0.00 | 0.00 | 0.00 | 26 | 1004.0 |
| 20260504234231 | 78 | 309 | 11.0 | 22.0 | 0.00 | 0.00 | 0.00 | 28 | 1004.0 |
| 20260504233731 | 78 | 315 | 13.0 | 19.0 | 0.00 | 0.00 | 0.00 | 28 | 1004.0 |
| 20260504233232 | 78 | 307 | 11.0 | 16.0 | 0.00 | 0.00 | 0.00 | 29 | 1004.0 |
| 20260504232732 | 78 | 287 | 13.0 | 18.0 | 0.00 | 0.00 | 0.00 | 30 | 1004.0 |
| 20260504232231 | 78 | 304 | 11.0 | 16.0 | 0.00 | 0.00 | 0.00 | 29 | 1004.0 |
| 20260504231731 | 78 | 291 | 10.0 | 12.0 | 0.00 | 0.00 | 0.00 | 30 | 1004.0 |
| 20260504231232 | 78 | 310 | 10.0 | 14.0 | 0.00 | 0.00 | 0.00 | 30 | 1004.0 |
| 20260504230731 | 77 | 305 | 8.0 | 10.0 | 0.00 | 0.00 | 0.00 | 31 | 1005.0 |
| 20260504230231 | 77 | 298 | 5.0 | 8.0 | 0.00 | 0.00 | 0.00 | 31 | 1005.0 |
| 20260504225731 | 77 | 313 | 9.0 | 12.0 | 0.00 | 0.00 | 0.00 | 31 | 1005.0 |
| 20260504225231 | 77 | 306 | 8.0 | 11.0 | 0.00 | 0.00 | 0.00 | 31 | 1005.0 |
| 20260504224731 | 77 | 304 | 8.0 | 12.0 | 0.00 | 0.00 | 0.00 | 31 | 1005.0 |
| 20260504224231 | 77 | 279 | 8.0 | 11.0 | 0.00 | 0.00 | 0.00 | 32 | 1005.0 |
| 20260504223732 | 77 | 302 | 10.0 | 13.0 | 0.00 | 0.00 | 0.00 | 31 | 1005.0 |
| 20260504223232 | 77 | 296 | 8.0 | 11.0 | 0.00 | 0.00 | 0.00 | 32 | 1005.0 |
| 20260504222732 | 77 | 309 | 8.0 | 9.0 | 0.00 | 0.00 | 0.00 | 30 | 1005.0 |
| 20260504222232 | 77 | 280 | 11.0 | 13.0 | 0.00 | 0.00 | 0.00 | 33 | 1005.0 |
| 20260504221731 | 77 | 281 | 12.0 | 16.0 | 0.00 | 0.00 | 0.00 | 31 | 1005.0 |
| 20260504221232 | 77 | 346 | 8.0 | 11.0 | 0.00 | 0.00 | 0.00 | 32 | 1005.0 |
| 20260504220732 | 76 | 314 | 6.0 | 9.0 | 0.00 | 0.00 | 0.00 | 33 | 1005.0 |
| 20260504220231 | 76 | 298 | 8.0 | 12.0 | 0.00 | 0.00 | 0.00 | 31 | 1005.0 |
| 20260504215731 | 76 | 320 | 9.0 | 14.0 | 0.00 | 0.00 | 0.00 | 32 | 1006.0 |
| 20260504215231 | 76 | 311 | 8.0 | 9.0 | 0.00 | 0.00 | 0.00 | 35 | 1006.0 |
| 20260504214731 | 76 | 312 | 7.0 | 9.0 | 0.00 | 0.00 | 0.00 | 33 | 1006.0 |
| 20260504214232 | 76 | 311 | 8.0 | 9.0 | 0.00 | 0.00 | 0.00 | 34 | 1006.0 |
| 20260504213731 | 76 | 312 | 9.0 | 11.0 | 0.00 | 0.00 | 0.00 | 32 | 1006.0 |
| 20260504213232 | 75 | 311 | 10.0 | 11.0 | 0.00 | 0.00 | 0.00 | 32 | 1006.0 |
| 20260504212732 | 75 | 311 | 10.0 | 11.0 | 0.00 | 0.00 | 0.00 | 33 | 1006.0 |
| 20260504212232 | 75 | 312 | 8.0 | 9.0 | 0.00 | 0.00 | 0.00 | 36 | 1006.0 |
| 20260504211732 | 75 | 312 | 6.0 | 8.0 | 0.00 | 0.00 | 0.00 | 35 | 1006.0 |
| 20260504211232 | 74 | 313 | 9.0 | 11.0 | 0.00 | 0.00 | 0.00 | 36 | 1006.0 |
| 20260504210732 | 74 | 313 | 8.0 | 11.0 | 0.00 | 0.00 | 0.00 | 36 | 1006.0 |
| 20260504210232 | 74 | 313 | 9.0 | 11.0 | 0.00 | 0.00 | 0.00 | 36 | 1006.0 |
| 20260504205731 | 74 | 313 | 7.0 | 11.0 | 0.00 | 0.00 | 0.00 | 34 | 1006.0 |
| 20260504205231 | 74 | 269 | 10.0 | 13.0 | 0.00 | 0.00 | 0.00 | 37 | 1006.0 |
| 20260504204732 | 74 | 299 | 8.0 | 10.0 | 0.00 | 0.00 | 0.00 | 36 | 1007.0 |
| 20260504204232 | 74 | 304 | 8.0 | 9.0 | 0.00 | 0.00 | 0.00 | 36 | 1007.0 |
| 20260504203732 | 73 | 321 | 8.0 | 12.0 | 0.00 | 0.00 | 0.00 | 36 | 1007.0 |
| 20260504203231 | 73 | 306 | 9.0 | 10.0 | 0.00 | 0.00 | 0.00 | 35 | 1007.0 |
| 20260504202738 | 73 | 301 | 7.0 | 9.0 | 0.00 | 0.00 | 0.00 | 36 | 1007.0 |
| 20260504202232 | 73 | 310 | 9.0 | 14.0 | 0.00 | 0.00 | 0.00 | 37 | 1007.0 |
| 20260504201731 | 73 | 0 | 8.0 | 10.0 | 0.00 | 0.00 | 0.00 | 34 | 1007.0 |
| 20260504201232 | 73 | 320 | 8.0 | 13.0 | 0.00 | 0.00 | 0.00 | 35 | 1007.0 |
| 20260504200732 | 73 | 322 | 8.0 | 13.0 | 0.00 | 0.00 | 0.00 | 36 | 1007.0 |
| 20260504200232 | 72 | 329 | 8.0 | 12.0 | 0.00 | 0.00 | 0.00 | 36 | 1007.0 |
| 20260504195732 | 72 | 322 | 7.0 | 9.0 | 0.00 | 0.00 | 0.00 | 38 | 1007.0 |
| 20260504195232 | 72 | 335 | 7.0 | 10.0 | 0.00 | 0.00 | 0.00 | 37 | 1007.0 |
| 20260504194733 | 72 | 324 | 7.0 | 11.0 | 0.00 | 0.00 | 0.00 | 39 | 1007.0 |
| 20260504194232 | 71 | 308 | 7.0 | 11.0 | 0.00 | 0.00 | 0.00 | 37 | 1007.0 |
| 20260504193733 | 71 | 321 | 4.0 | 10.0 | 0.00 | 0.00 | 0.00 | 37 | 1007.0 |
| 20260504193231 | 71 | 136 | 7.0 | 9.0 | 0.00 | 0.00 | 0.00 | 38 | 1007.0 |
| 20260504192731 | 71 | 136 | 9.0 | 11.0 | 0.00 | 0.00 | 0.00 | 39 | 1007.0 |
| 20260504192231 | 71 | 142 | 4.0 | 8.0 | 0.00 | 0.00 | 0.00 | 38 | 1008.0 |
| 20260504191732 | 71 | 156 | 10.0 | 13.0 | 0.00 | 0.00 | 0.00 | 39 | 1008.0 |
| 20260504191232 | 71 | 138 | 8.0 | 9.0 | 0.00 | 0.00 | 0.00 | 41 | 1008.0 |
| 20260504190734 | 70 | 141 | 8.0 | 11.0 | 0.00 | 0.00 | 0.00 | 41 | 1008.0 |
| 20260504190234 | 70 | 142 | 9.0 | 18.0 | 0.00 | 0.00 | 0.00 | 40 | 1008.0 |
| 20260504185732 | 70 | 341 | 5.0 | 9.0 | 0.00 | 0.00 | 0.00 | 41 | 1008.0 |
| 20260504185234 | 69 | 302 | 6.0 | 8.0 | 0.00 | 0.00 | 0.00 | 42 | 1008.0 |
| 20260504184732 | 69 | 303 | 6.0 | 9.0 | 0.00 | 0.00 | 0.00 | 42 | 1008.0 |
| 20260504184231 | 69 | 299 | 8.0 | 9.0 | 0.00 | 0.00 | 0.00 | 42 | 1008.0 |
| 20260504183733 | 69 | 311 | 8.0 | 11.0 | 0.00 | 0.00 | 0.00 | 44 | 1008.0 |
| 20260504183234 | 68 | 311 | 5.0 | 6.0 | 0.00 | 0.00 | 0.00 | 43 | 1008.0 |
| 20260504182231 | 68 | 311 | 7.0 | 10.0 | 0.00 | 0.00 | 0.00 | 46 | 1008.0 |
| 20260504181233 | 67 | 316 | 8.0 | 9.0 | 0.00 | 0.00 | 0.00 | 46 | 1008.0 |
| 20260504180731 | 67 | 347 | 4.0 | 7.0 | 0.00 | 0.00 | 0.00 | 47 | 1008.0 |
| 20260504180231 | 67 | 306 | 7.0 | 9.0 | 0.00 | 0.00 | 0.00 | 48 | 1008.0 |
| 20260504175733 | 66 | 303 | 5.0 | 9.0 | 0.00 | 0.00 | 0.00 | 48 | 1009.0 |
| 20260504175232 | 66 | 257 | 4.0 | 7.0 | 0.00 | 0.00 | 0.00 | 49 | 1009.0 |
| 20260504174733 | 66 | 290 | 8.0 | 15.0 | 0.00 | 0.00 | 0.00 | 48 | 1009.0 |
| 20260504174231 | 66 | 189 | 11.0 | 16.0 | 0.00 | 0.00 | 0.00 | 47 | 1009.0 |
| 20260504173732 | 65 | 253 | 7.0 | 9.0 | 0.00 | 0.00 | 0.00 | 49 | 1009.0 |
| 20260504173231 | 65 | 268 | 7.0 | 11.0 | 0.00 | 0.00 | 0.00 | 48 | 1009.0 |
| 20260504172733 | 65 | 333 | 5.0 | 7.0 | 0.00 | 0.00 | 0.00 | 48 | 1009.0 |
| 20260504172232 | 65 | 283 | 4.0 | 7.0 | 0.00 | 0.00 | 0.00 | 47 | 1009.0 |
| 20260504171731 | 64 | 309 | 5.0 | 8.0 | 0.00 | 0.00 | 0.00 | 48 | 1009.0 |
| 20260504171234 | 64 | 288 | 4.0 | 9.0 | 0.00 | 0.00 | 0.00 | 48 | 1009.0 |
| 20260504170731 | 64 | 320 | 5.0 | 7.0 | 0.00 | 0.00 | 0.00 | 49 | 1009.0 |
| 20260504170232 | 63 | 288 | 4.0 | 6.0 | 0.00 | 0.00 | 0.00 | 51 | 1009.0 |
| 20260504160231 | 61 | 257 | 5.0 | 6.0 | 0.00 | 0.00 | 0.00 | 54 | 1009.0 |
| 20260504150732 | 58 | 135 | 1.0 | 2.0 | 0.00 | 0.00 | 0.00 | 54 | 1009.0 |
| 20260504150233 | 58 | 118 | 2.0 | 4.0 | 0.00 | 0.00 | 0.00 | 54 | 1009.0 |
| 20260504141231 | 55 | 75 | 3.0 | 4.0 | 0.00 | 0.00 | 0.00 | 59 | 1009.0 |
| 20260504140733 | 54 | 126 | 2.0 | 3.0 | 0.00 | 0.00 | 0.00 | 61 | 1009.0 |
| 20260504140231 | 53 | 135 | 2.0 | 5.0 | 0.00 | 0.00 | 0.00 | 64 | 1009.0 |
| 20260504130731 | 51 | 154 | 1.0 | 1.0 | 0.00 | 0.00 | 0.00 | 66 | 1008.0 |
| 20260504130232 | 51 | 128 | 2.0 | 2.0 | 0.00 | 0.00 | 0.00 | 66 | 1008.0 |
| 20260504120233 | 51 | 126 | 2.0 | 2.0 | 0.00 | 0.00 | 0.00 | 65 | 1008.0 |